Location: Sihaung
(22.8641°N, 94.0549°E)
Time: 00:51:29
(UTC+00:00)

Cosmos 1743 Rocket - Pass Details

Date: 03 March 2021
Orbit: 604 x 633 km, 82.6° (Epoch: 13 April)

Event Time Altitude Azimuth Distance (km) Brightness Sun altitude
Rises 22:18:10 0° 358° (N) 2,923 7.0 -24.9°
Reaches altitude 10° 22:20:25 10° 1° (N) 2,012 6.2 -24.4°
Maximum altitude 22:24:52 70° 85° (E) 670 3.8 -23.4°
Drops below altitude 10° 22:29:16 10° 169° (SSE) 1,994 6.3 -22.4°
Sets 22:31:30 0° 171° (S) 2,895 7.1 -21.8°
